[[{"header":{"parameterUnit":"m.s-1","parameterCategory":1,"la1":30.2991,"la2":30.254,"lo1":-89.0895,"lo2":-89.0444,"dy":0.0017,"dx":0.0017,"nx":28,"ny":28,"refTime":"2024-12-21T03:00:00:Z","depth":0,"parameterNumber":2,"parameterNumberName":"U-component_of_WINDS"},"data":[0,0,0,0,0,0,0,0,0,0,0,0,0,0,0,0,0,0,0,0,0,0,0,0,0,0,0,0,0,0,0,0,0,0,0,0,0,0,0,0,0,0,0,0,0,0,0,0,0,0,0,0,0,0,0,0,0,0,-1.5783,-1.5784,0,-1.5837,-1.5838,-1.5838,-1.577,-1.5768,-1.5765,-1.5763,-1.582,-1.5824,-1.5828,0,0,0,0,0,0,0,0,0,0,0,0,0,-1.5622,-1.5626,-1.5783,-1.5784,-1.5784,-1.5837,-1.5838,-1.5838,-1.5771,-1.5768,-1.5765,-1.5762,-1.5819,-1.5823,-1.5828,0,0,0,0,0,0,0,0,0,0,0,0,0,-1.5686,-1.5627,-1.5783,-1.5757,-1.5755,-1.5837,-1.5838,-1.5839,-1.5771,-1.5767,-1.5764,-1.576,-1.5817,-1.5823,-1.5829,-1.5939,0,0,-1.5846,-1.5849,0,0,0,0,0,0,0,0,-1.5682,-1.5692,-1.576,-1.5759,-1.5757,-1.5793,-1.5802,-1.5872,-1.5772,-1.5765,-1.5763,-1.5758,-1.5814,-1.582,-1.5838,-1.5942,-1.5944,-1.5847,-1.585,-1.5853,-1.5854,0,0,0,0,0,0,0,-1.5678,-1.5689,-1.5804,-1.5761,-1.5759,-1.5743,-1.5748,-1.5815,-1.581,-1.5766,-1.5761,-1.5768,-1.5813,-1.5833,-1.5839,-1.5945,-1.5847,-1.5852,-1.5855,-1.5858,-1.6141,-1.6145,0,0,0,0,0,0,-1.5677,-1.5686,-1.5803,-1.5806,-1.571,-1.5749,-1.5754,-1.5785,-1.5809,-1.5809,-1.5771,-1.5764,-1.5825,-1.5833,-1.5841,-1.5972,-1.5853,-1.5858,-1.5861,-1.6137,-1.6142,-1.6146,0,0,0,0,0,0,-1.5673,-1.5688,-1.5801,-1.5745,-1.5758,-1.5755,-1.5791,-1.5788,-1.5808,-1.5813,-1.5812,-1.5793,-1.5822,-1.5833,-1.5915,-1.5973,-1.5861,-1.5866,-1.6132,-1.6138,-1.6144,-1.6235,0,0,0,0,0,0,-1.5669,-1.5687,-1.5729,-1.5746,-1.5761,-1.5874,-1.5794,-1.5792,-1.5818,-1.581,-1.5833,-1.5834,-1.582,-1.5907,-1.5921,-1.5979,-1.587,-1.6127,-1.6135,-1.6142,-1.6227,-1.6243,-1.6258,0,0,0,0,0,-1.5664,-1.5753,-1.5731,-1.5746,-1.5813,-1.5877,-1.5886,-1.5868,-1.5823,-1.5866,-1.5868,-1.5833,-1.5964,-1.5916,-1.5931,-1.5992,-1.6123,-1.6133,-1.6141,-1.622,-1.624,-1.6257,0,0,0,0,0,0,-1.5744,-1.5755,-1.5731,-1.5829,-1.5852,-1.5866,-1.5919,-1.589,-1.5928,-1.5919,-1.5895,-1.5901,-1.5989,-1.5998,-1.5944,-1.6099,-1.6036,-1.6049,-1.6091,-1.611,-1.6125,-1.6122,-1.5875,0,0,0,0,0,-1.5773,-1.5823,-1.583,-1.5915,-1.5928,-1.5922,-1.5949,-1.5933,-1.5957,-1.5967,-1.5975,-1.6001,-1.6047,-1.6079,-1.6122,-1.6227,-1.6231,-1.6276,-1.6291,-1.6304,-1.6316,-1.6372,-1.6392,-1.6176,-1.6176,-1.6176,0,0,-1.5833,-1.5845,-1.5879,-1.5932,-1.5948,-1.6002,-1.5931,-1.599,-1.6029,-1.5976,-1.6054,-1.6061,-1.6087,-1.6181,-1.6223,-1.6192,-1.6376,-1.6316,-1.6326,-1.6331,-1.6383,-1.6404,-1.6422,-1.6182,-1.6181,-1.618,0,0,-1.5971,-1.5985,-1.6058,-1.6075,-1.6101,-1.6095,-1.6113,-1.613,-1.6132,-1.621,-1.6171,-1.6217,-1.6298,-1.6318,-1.6339,-1.6482,-1.6451,-1.6497,-1.6578,-1.6633,-1.665,-1.6665,-1.6717,-1.6736,-1.6508,-1.6508,-1.6509,0,-1.6044,-1.6122,-1.6099,-1.6161,-1.6185,-1.6138,-1.6211,-1.6229,-1.6268,-1.6286,-1.625,-1.635,-1.6364,-1.6462,-1.6497,-1.6515,-1.6535,-1.6495,-1.6649,-1.6664,-1.6678,-1.6727,-1.6747,-1.6514,-1.6513,-1.6513,-1.6512,0,-1.621,-1.6265,-1.632,-1.6358,-1.6388,-1.6456,-1.6443,-1.6477,-1.6457,-1.6456,-1.6535,-1.655,-1.6595,-1.6617,-1.6599,-1.6712,-1.6692,-1.6653,-1.6589,-1.6704,-1.675,-1.6769,-1.6522,-1.652,-1.6518,-1.6517,0,0,-1.6403,-1.6425,-1.6446,-1.6462,-1.6486,-1.6528,-1.6592,-1.6636,-1.6665,-1.6693,-1.6747,-1.6815,-1.6779,-1.6803,-1.6786,-1.6835,-1.6948,-1.679,-1.679,-1.6819,-1.7074,-1.7104,-1.7126,-1.6926,-1.6929,-1.6932,-1.7072,0,-1.6541,-1.6653,-1.6634,-1.6743,-1.6793,-1.6747,-1.6804,-1.6824,-1.6824,-1.6867,-1.6866,-1.6915,-1.6863,-1.6877,-1.6922,-1.6924,-1.6999,-1.6914,-1.6977,-1.698,-1.6974,-1.715,-1.7183,-1.7314,-1.7089,-1.7093,-1.7095,0,-1.6719,-1.6752,-1.6866,-1.6881,-1.6901,-1.6952,-1.699,-1.7031,-1.7053,-1.7049,-1.7075,-1.7049,-1.7114,-1.7047,-1.7136,-1.7079,-1.7103,-1.7108,-1.7112,-1.7119,-1.7046,-1.7163,-1.7355,-1.7376,-1.7123,-1.712,-1.7118,0,-1.6849,-1.6922,-1.7,-1.7015,-1.7034,-1.7071,-1.708,-1.7098,-1.7125,-1.7158,-1.7175,-1.7215,-1.7238,-1.7269,-1.7255,-1.7208,-1.7347,-1.7279,-1.7346,-1.7347,-1.7379,-1.7378,-1.758,-1.7392,-1.7392,-1.7392,-1.7391,0,-1.7007,-1.7079,-1.7058,-1.7107,-1.7185,-1.7161,-1.724,-1.7244,-1.726,-1.7308,-1.7271,-1.7317,-1.7294,-1.7338,-1.7327,-1.7403,-1.7413,-1.7412,-1.7408,-1.7416,-1.7417,-1.7433,-1.7425,-1.7397,-1.7396,-1.7395,-1.7394,0,-1.7168,-1.7156,-1.7238,-1.7248,-1.7252,-1.731,-1.7319,-1.7364,-1.7359,-1.7421,-1.7433,-1.7427,-1.7477,-1.7465,-1.752,-1.7512,-1.7607,-1.7592,-1.76,-1.7597,-1.7665,-1.7659,-1.7886,-1.7915,-1.7708,-1.771,-1.7712,0,-1.727,-1.7324,-1.734,-1.7369,-1.7381,-1.7428,-1.7455,-1.7433,-1.7463,-1.7491,-1.7532,-1.7578,-1.7615,-1.7696,-1.7697,-1.7738,-1.7724,-1.78,-1.773,-1.7736,-1.7727,-1.7724,-1.773,-1.7815,-1.7818,-1.782,-1.7821,0,-1.7454,-1.7445,-1.7485,-1.7523,-1.7556,-1.7585,-1.761,-1.7636,-1.7616,-1.7651,-1.7701,-1.7729,-1.7784,-1.783,-1.7868,-1.7878,-1.7847,-1.7843,-1.7861,-1.787,-1.7874,-1.7874,-1.764,-1.7838,-1.7837,-1.7835,-1.7834,-1.7834,-1.7589,-1.7635,-1.7653,-1.7698,-1.7714,-1.7739,-1.7781,-1.7781,-1.7822,-1.7865,-1.7849,-1.7907,-1.7926,-1.7973,-1.7988,-1.8032,-1.8003,-1.8029,-1.8036,-1.8043,-1.8052,-1.7865,-1.8039,-1.8038,-1.8038,-1.8037,-1.8037,0,-1.7771,-1.778,-1.7822,-1.7858,-1.7894,-1.786,-1.7886,-1.7918,-1.7969,-1.7989,-1.8025,-1.8082,-1.8126,-1.8129,-1.8171,-1.8206,-1.8193,-1.8218,-1.8216,-1.8219,-1.8075,-1.8056,-1.8228,-1.8228,-1.8228,-1.8228,-1.8228,-1.8228,-1.7871,-1.7946,-1.794,-1.8023,-1.8031,-1.8086,-1.8104,-1.8126,-1.8142,-1.8208,-1.8244,-1.8245,-1.8258,-1.83,-1.8339,-1.8339,-1.8357,-1.8388,-1.8382,-1.8248,-1.8229,-1.8211,-1.8193,-1.8391,-1.8392,-1.8523,-1.8524,-1.8525]},{"header":{"parameterUnit":"m.s-1","parameterCategory":1,"la1":30.2991,"la2":30.254,"lo1":-89.0895,"lo2":-89.0444,"dy":0.0017,"dx":0.0017,"nx":28,"ny":28,"refTime":"2024-12-21T03:00:00:Z","depth":0,"parameterNumber":3,"parameterNumberName":"V-component_of_WINDS"},"data":[0,0,0,0,0,0,0,0,0,0,0,0,0,0,0,0,0,0,0,0,0,0,0,0,0,0,0,0,0,0,0,0,0,0,0,0,0,0,0,0,0,0,0,0,0,0,0,0,0,0,0,0,0,0,0,0,0,0,-7.1476,-7.1477,0,-7.1596,-7.1598,-7.1599,-7.1506,-7.1502,-7.1498,-7.1494,-7.1612,-7.1619,-7.1625,0,0,0,0,0,0,0,0,0,0,0,0,0,-7.1159,-7.1165,-7.1476,-7.1477,-7.1479,-7.1596,-7.1598,-7.1599,-7.1507,-7.1502,-7.1497,-7.1493,-7.161,-7.1618,-7.1626,0,0,0,0,0,0,0,0,0,0,0,0,0,-7.1289,-7.1167,-7.1475,-7.1447,-7.1446,-7.1596,-7.1598,-7.16,-7.1508,-7.1502,-7.1496,-7.149,-7.1607,-7.1617,-7.1627,-7.181,0,0,-7.1658,-7.1663,0,0,0,0,0,0,0,0,-7.1282,-7.1301,-7.145,-7.1449,-7.1448,-7.153,-7.1529,-7.167,-7.1509,-7.1484,-7.1494,-7.1487,-7.1589,-7.16,-7.1636,-7.1815,-7.182,-7.1659,-7.1666,-7.167,-7.1673,0,0,0,0,0,0,0,-7.1273,-7.1295,-7.1523,-7.1452,-7.1451,-7.1426,-7.1438,-7.1555,-7.1568,-7.1486,-7.1479,-7.1495,-7.1587,-7.1626,-7.1638,-7.1822,-7.1659,-7.1668,-7.1674,-7.1678,-7.2155,-7.2161,0,0,0,0,0,0,-7.1268,-7.1289,-7.1519,-7.1527,-7.1349,-7.1436,-7.145,-7.151,-7.1567,-7.157,-7.15,-7.149,-7.1612,-7.1626,-7.1642,-7.1858,-7.167,-7.1679,-7.1685,-7.2148,-7.2156,-7.2163,0,0,0,0,0,0,-7.1261,-7.1289,-7.1514,-7.1406,-7.1433,-7.1448,-7.1516,-7.1515,-7.1554,-7.1578,-7.1579,-7.1538,-7.1608,-7.1627,-7.1769,-7.1861,-7.1684,-7.1693,-7.2141,-7.2151,-7.216,-7.2294,0,0,0,0,0,0,-7.1253,-7.1288,-7.1359,-7.1408,-7.1439,-7.1642,-7.1522,-7.1522,-7.1573,-7.1561,-7.1614,-7.1617,-7.1604,-7.1754,-7.1779,-7.1872,-7.1701,-7.2132,-7.2145,-7.2157,-7.2281,-7.2307,-7.2329,0,0,0,0,0,-7.1242,-7.1391,-7.1363,-7.1392,-7.1529,-7.1647,-7.1665,-7.1649,-7.1581,-7.1651,-7.1666,-7.1615,-7.1847,-7.1769,-7.1797,-7.1894,-7.2127,-7.2142,-7.2156,-7.227,-7.2302,-7.2328,0,0,0,0,0,0,-7.135,-7.1397,-7.1367,-7.1537,-7.1589,-7.1632,-7.172,-7.1683,-7.1755,-7.1741,-7.1717,-7.1729,-7.1878,-7.19,-7.1812,-7.2073,-7.1975,-7.1996,-7.2053,-7.2083,-7.2107,-7.2098,-7.171,0,0,0,0,0,-7.1395,-7.1489,-7.1524,-7.167,-7.1698,-7.1705,-7.1756,-7.174,-7.1792,-7.1813,-7.1839,-7.189,-7.1973,-7.2029,-7.2108,-7.2284,-7.2292,-7.2364,-7.2388,-7.2407,-7.2425,-7.2518,-7.2549,-7.2211,-7.2211,-7.2211,0,0,-7.1486,-7.1523,-7.1584,-7.1693,-7.1732,-7.1828,-7.1724,-7.1831,-7.1901,-7.1829,-7.1964,-7.1984,-7.2039,-7.2198,-7.2269,-7.2221,-7.2521,-7.2426,-7.2441,-7.2449,-7.2536,-7.2568,-7.2596,-7.2221,-7.2219,-7.2218,0,0,-7.1702,-7.174,-7.1866,-7.1907,-7.1967,-7.1971,-7.2001,-7.2049,-7.206,-7.2196,-7.2143,-7.2225,-7.2371,-7.2412,-7.2452,-7.2682,-7.2637,-7.2708,-7.2833,-7.2923,-7.295,-7.2973,-7.3054,-7.3083,-7.2726,-7.2727,-7.2727,0,-7.1807,-7.1952,-7.1935,-7.2045,-7.2094,-7.2034,-7.216,-7.22,-7.2282,-7.2316,-7.2261,-7.2442,-7.2475,-7.2642,-7.2698,-7.2733,-7.2765,-7.2702,-7.2948,-7.2971,-7.2992,-7.3069,-7.3099,-7.2735,-7.2734,-7.2733,-7.2732,0,-7.2078,-7.2179,-7.2273,-7.2356,-7.2415,-7.2532,-7.253,-7.2592,-7.257,-7.2579,-7.2716,-7.2753,-7.2838,-7.2876,-7.2856,-7.304,-7.3008,-7.2951,-7.2853,-7.3033,-7.3105,-7.3134,-7.2747,-7.2744,-7.2741,-7.2739,0,0,-7.2366,-7.2437,-7.2472,-7.2508,-7.257,-7.2646,-7.276,-7.2844,-7.2897,-7.2955,-7.3048,-7.3172,-7.312,-7.3165,-7.3148,-7.3228,-7.3406,-7.3161,-7.3162,-7.3204,-7.3609,-7.365,-7.3685,-7.3376,-7.3382,-7.3386,-7.3603,0,-7.2584,-7.2784,-7.2771,-7.2959,-7.305,-7.2995,-7.3093,-7.314,-7.3151,-7.3228,-7.3238,-7.3327,-7.3252,-7.3278,-7.3355,-7.3368,-7.3486,-7.3352,-7.346,-7.3464,-7.3448,-7.3722,-7.3767,-7.3971,-7.3631,-7.3636,-7.364,0,-7.2865,-7.2935,-7.3132,-7.3178,-7.3216,-7.3306,-7.3381,-7.3457,-7.3508,-7.3509,-7.356,-7.353,-7.3641,-7.3541,-7.3693,-7.3602,-7.3645,-7.3659,-7.3666,-7.3675,-7.3563,-7.3738,-7.4036,-7.4066,-7.3684,-7.368,-7.3677,0,-7.3054,-7.3197,-7.3333,-7.3365,-7.3423,-7.3487,-7.3514,-7.3559,-7.361,-7.3675,-7.3708,-7.3785,-7.3826,-7.3885,-7.3875,-7.3803,-7.403,-7.3929,-7.4033,-7.4033,-7.4083,-7.408,-7.4391,-7.4112,-7.4112,-7.4111,-7.4111,0,-7.3298,-7.3421,-7.3418,-7.3502,-7.3636,-7.3619,-7.3752,-7.3771,-7.3812,-7.3896,-7.3852,-7.3931,-7.3914,-7.3992,-7.3985,-7.4111,-7.413,-7.4133,-7.413,-7.4137,-7.4137,-7.4164,-7.415,-7.4119,-7.4118,-7.4116,-7.4115,0,-7.3532,-7.3536,-7.368,-7.3723,-7.3737,-7.3834,-7.3869,-7.3947,-7.3953,-7.4061,-7.4085,-7.4094,-7.4184,-7.418,-7.4282,-7.4277,-7.4432,-7.4412,-7.4416,-7.4411,-7.4515,-7.4505,-7.4854,-7.4898,-7.4592,-7.4595,-7.4598,0,-7.3687,-7.378,-7.3834,-7.3888,-7.3919,-7.4007,-7.4059,-7.4045,-7.41,-7.4165,-7.4235,-7.4321,-7.4389,-7.4535,-7.4549,-7.4626,-7.4607,-7.4724,-7.4618,-7.4622,-7.4607,-7.4602,-7.461,-7.4745,-7.4748,-7.4751,-7.4754,0,-7.3962,-7.3959,-7.4037,-7.4116,-7.418,-7.4241,-7.4296,-7.4343,-7.4334,-7.4398,-7.4491,-7.4544,-7.4647,-7.4733,-7.4806,-7.483,-7.479,-7.4787,-7.4815,-7.4823,-7.482,-7.4822,-7.4471,-7.4779,-7.4776,-7.4774,-7.4773,-7.4772,-7.416,-7.424,-7.429,-7.4378,-7.4418,-7.4471,-7.4546,-7.4562,-7.464,-7.4725,-7.4711,-7.4814,-7.486,-7.4955,-7.4986,-7.5064,-7.5022,-7.5063,-7.5073,-7.5083,-7.5095,-7.4809,-7.5078,-7.5077,-7.5076,-7.5076,-7.5075,0,-7.4432,-7.4461,-7.4542,-7.4622,-7.4691,-7.4649,-7.4708,-7.4767,-7.4859,-7.4907,-7.4975,-7.508,-7.5162,-7.5184,-7.5262,-7.5321,-7.5304,-7.5342,-7.5336,-7.5342,-7.5128,-7.5096,-7.5354,-7.5354,-7.5354,-7.5353,-7.5353,-7.5353,-7.4581,-7.4713,-7.4716,-7.4867,-7.4894,-7.4997,-7.5034,-7.5081,-7.5119,-7.5239,-7.5308,-7.5321,-7.5358,-7.5438,-7.5511,-7.5515,-7.5545,-7.559,-7.5586,-7.5386,-7.5358,-7.5331,-7.53,-7.5597,-7.5597,-7.5794,-7.5795,-7.5797]}]]